GFSNGP_700_spd_057.txt.gz
Wind_Speed
22 22 17 17 16 22 27 25 27 35 37 32 27 23 15 13 18 24 23 26 34 34 30 32 32 27 29 34 29 30 29 26 25 23 29 32 36 35 35 35 33 30 29 28
22 21 20 23 24 24 29 30 28 31 34 25 12 27 19 20 16 16 20 18 25 27 28 30 30 24 22 27 33 32 28 27 26 28 27 29 32 35 35 36 34 32 32 30
28 22 22 28 28 27 30 33 33 37 32 24 21 18 17 18 20 17 18 17 18 20 25 27 28 34 26 26 31 35 33 30 29 27 28 26 29 33 35 36 35 34 33 32
24 22 20 24 23 25 32 33 34 38 40 35 30 23 20 20 29 26 25 28 23 27 31 38 37 28 31 30 32 38 36 35 31 27 24 28 27 33 34 35 35 35 33 33
24 24 24 25 16 10 20 28 23 35 35 39 35 29 31 21 28 24 24 26 26 31 30 34 39 38 32 35 32 37 39 37 34 32 26 25 24 29 32 33 34 35 33 32
18 22 21 25 12 22 22 22 20 18 35 34 31 34 30 27 34 32 27 23 26 30 33 35 37 37 39 39 36 34 41 38 36 37 33 27 24 21 25 29 30 31 31 32
29 25 21 10 19 20 14 15 19 11 12 20 24 23 29 36 40 40 35 33 28 30 34 35 39 42 43 41 38 31 32 38 41 38 39 32 29 27 24 24 27 30 31 31
27 16 22 19 19 18 22 21 22 17 28 33 35 39 40 45 38 36 39 37 32 27 31 36 39 44 45 45 37 37 35 34 44 42 41 39 34 30 29 29 29 29 31 33
12 17 17 21 25 20 24 23 16 18 28 34 43 41 43 41 43 43 39 36 34 30 29 38 43 43 44 45 46 44 39 33 38 47 44 42 37 34 33 36 38 37 36 36
15 17 25 25 29 29 25 18 15 23 31 36 36 32 29 33 40 45 43 35 33 30 31 36 41 47 48 52 54 52 45 38 35 46 43 43 38 39 32 33 33 36 38 36
17 20 25 27 21 14 18 12 16 24 26 25 29 33 31 29 35 33 29 26 28 26 27 31 39 45 51 55 56 57 53 46 40 45 43 40 37 36 33 31 32 35 35 34
10 11 10 14 15 9 8 9 13 20 26 21 21 24 30 27 32 34 32 29 24 24 25 27 32 35 39 44 48 49 49 46 41 48 46 43 40 35 35 35 34 34 35 34
11 7 9 12 9 7 6 4 19 15 19 22 19 16 15 24 23 30 33 33 29 27 26 28 28 28 22 35 39 31 38 44 47 51 49 47 44 40 40 37 37 39 39 35
10 7 6 9 6 3 6 4 10 11 14 20 13 19 10 14 17 17 19 21 25 26 27 28 28 34 36 29 34 33 34 43 40 38 45 52 50 48 46 42 41 43 39 38
17 13 9 12 12 6 6 6 5 7 8 14 13 12 14 12 14 12 7 10 12 18 22 20 23 28 31 33 34 35 34 35 36 40 41 49 46 47 43 45 43 41 42 39
13 14 13 14 15 11 5 5 6 6 8 8 13 10 12 14 14 14 12 7 8 10 12 16 18 20 23 29 30 37 39 38 29 28 40 39 38 33 38 27 36 44 44 43
12 15 16 15 17 15 14 11 6 3 4 11 19 24 14 15 18 14 15 16 12 12 10 9 12 15 17 18 18 23 22 28 23 26 29 29 27 36 42 39 31 38 47 46
16 16 18 15 15 16 13 12 10 8 8 8 7 8 23 26 23 24 20 18 19 19 17 15 12 11 12 14 16 15 20 18 23 23 29 33 40 28 28 39 38 45 44 38
14 16 17 19 20 18 17 14 11 9 8 7 8 7 6 11 14 18 25 29 26 22 23 24 21 17 16 16 18 19 19 23 24 19 28 31 30 34 32 36 40 39 37 36
13 14 15 21 22 21 22 20 13 12 10 8 8 5 5 5 5 5 9 21 28 29 32 29 27 25 23 20 20 21 25 26 20 23 22 28 33 35 35 35 35 37 35 38
13 14 15 12 17 18 18 21 18 17 11 10 9 8 7 7 5 6 6 6 14 13 22 31 36 36 32 32 29 27 26 29 28 30 31 29 24 25 27 30 33 33 34 34
8 12 16 12 11 13 13 13 15 14 17 13 11 11 12 12 11 9 6 6 5 5 8 10 18 24 32 39 40 38 38 37 33 30 30 33 37 43 40 32 32 31 32 35
4 5 8 8 9 10 11 11 12 11 11 14 16 16 13 11 10 11 10 7 5 5 6 7 7 10 17 25 28 29 37 42 43 42 39 32 29 28 30 34 38 42 43 36
7 5 9 6 9 10 11 11 14 16 15 16 15 14 15 16 13 14 14 14 12 6 4 5 6 10 7 8 11 15 19 25 32 43 49 49 46 41 36 35 32 33 37 42
8 5 12 3 6 8 10 11 7 9 8 11 11 12 9 14 12 12 12 11 12 12 11 9 8 10 11 8 2 5 10 13 17 20 26 33 37 39 39 39 41 42 44 38
6 9 5 4 7 3 5 7 8 7 6 6 7 7 9 12 14 12 12 10 8 9 10 11 10 9 10 12 12 11 6 6 8 10 13 17 20 26 34 39 39 40 40 43
6 11 8 13 5 1 5 7 4 6 6 4 5 5 6 8 10 10 11 11 11 11 10 11 11 10 9 8 8 8 8 9 9 8 8 10 12 17 18 22 27 30 32 33

GFSNGP_700_spd_060.txt.gz
Wind_Speed
26 29 22 20 20 20 29 32 34 31 36 38 21 14 8 6 14 16 25 24 31 32 29 35 30 31 28 28 27 28 27 25 21 18 25 27 29 31 33 33 32 30 27 26
27 25 24 27 24 24 24 23 32 32 31 32 19 21 24 11 6 8 19 21 18 21 36 44 31 32 27 23 26 29 26 23 25 25 24 23 28 29 32 34 33 32 31 29
27 23 25 32 28 26 27 26 24 27 31 27 22 8 10 20 19 4 5 15 25 17 13 29 42 47 27 24 24 31 30 27 25 27 26 26 23 27 30 32 33 33 33 32
20 19 16 25 23 27 32 31 27 28 31 30 26 20 15 21 26 18 4 13 22 29 28 13 15 31 25 31 27 27 32 33 29 26 25 27 29 26 27 30 33 34 33 32
18 22 21 22 15 12 9 21 19 23 24 25 28 30 28 32 31 28 22 20 23 28 29 31 31 28 28 30 32 26 30 33 33 31 27 24 28 30 27 28 30 33 33 32
20 19 16 25 13 12 13 16 23 25 25 22 18 24 28 31 34 38 30 23 23 31 31 27 29 37 35 35 33 34 28 29 33 34 32 28 24 25 28 27 27 30 31 31
25 21 26 13 12 18 17 20 23 27 30 29 20 10 16 22 35 31 32 22 24 23 22 22 27 28 34 43 43 37 30 30 33 38 34 33 31 27 23 21 25 30 30 30
21 21 20 15 16 16 19 26 27 30 29 35 32 22 19 27 39 40 38 33 30 27 26 24 25 34 34 35 36 38 38 34 34 36 39 38 35 34 30 27 23 25 29 29
9 10 16 18 22 25 30 33 32 37 39 38 41 36 29 39 36 38 37 37 32 29 28 32 28 32 39 37 37 37 39 41 35 36 40 43 40 39 36 33 30 26 26 27
18 15 19 18 25 29 33 36 33 33 40 43 47 41 42 47 42 47 49 47 42 33 33 32 31 31 36 41 40 42 42 44 43 37 37 38 44 42 42 37 34 32 30 30
20 27 31 34 33 36 37 38 33 33 34 34 44 39 45 43 41 35 39 42 44 45 45 36 35 35 37 39 42 43 45 48 49 42 38 36 43 46 43 41 35 33 32 33
19 18 20 20 24 29 32 31 26 25 22 25 31 38 36 36 36 35 38 37 42 45 42 38 36 36 41 40 43 46 48 50 51 47 42 39 38 47 47 43 38 35 32 34
21 12 7 13 20 19 18 17 21 19 15 18 26 30 27 29 31 39 39 36 41 43 39 35 34 36 34 38 38 46 49 55 54 53 49 45 40 46 47 44 39 38 34 33
25 21 9 13 15 14 12 16 19 19 17 15 28 26 16 16 28 33 34 30 35 37 37 39 34 33 32 38 37 42 45 50 43 50 49 48 45 47 48 44 37 35 35 34
16 25 17 21 16 15 11 9 9 13 15 16 21 25 18 16 19 26 23 22 26 31 39 37 36 34 32 21 27 41 40 41 42 40 37 39 37 45 50 47 44 44 39 36
13 14 17 24 23 18 16 8 5 7 8 14 17 21 22 21 19 19 21 16 18 17 18 26 30 28 25 43 42 31 36 40 41 42 41 40 41 43 44 41 42 42 38 37
9 18 20 18 17 21 18 14 10 6 1 10 13 19 16 10 16 19 17 15 17 14 13 15 16 23 27 18 25 38 19 44 32 41 37 39 43 43 45 41 32 36 40 37
12 14 19 21 20 17 19 14 12 11 9 7 3 1 5 13 23 23 20 18 19 18 16 13 13 14 17 23 21 25 17 25 29 23 37 40 36 37 42 39 35 32 37 31
18 16 14 18 23 21 19 17 18 14 11 10 7 4 2 3 3 11 17 23 22 19 20 17 17 17 17 17 16 16 16 20 21 23 26 28 31 22 34 34 28 28 27 34
13 17 17 11 11 19 21 17 22 18 13 11 9 9 7 3 1 2 6 13 21 24 22 23 23 21 19 19 18 20 22 18 18 24 22 25 32 33 34 30 46 52 51 57
14 8 14 11 10 11 14 14 22 20 20 14 13 14 14 11 9 4 1 3 8 12 18 19 26 24 28 24 22 26 25 22 22 19 19 13 23 24 23 22 22 25 29 31
8 16 8 12 8 9 15 10 18 18 22 23 23 23 17 17 18 13 10 8 5 2 8 8 12 16 23 30 32 30 27 25 25 26 26 27 29 30 22 20 22 25 29 30
2 9 7 9 11 9 14 10 13 21 14 12 20 21 19 20 15 13 12 15 14 10 4 2 0 7 9 15 23 32 37 34 31 31 29 28 30 36 37 35 32 29 32 30
8 5 3 7 7 8 10 15 11 10 13 13 15 13 19 25 22 15 12 13 13 13 13 13 14 11 4 5 11 16 23 30 36 39 41 38 37 34 33 32 31 29 34 44
16 11 11 3 2 9 9 10 10 12 12 14 14 11 13 25 20 17 15 10 11 13 14 12 12 13 12 9 3 2 8 13 17 21 24 30 34 38 39 39 38 37 35 32
14 22 3 6 2 1 4 4 7 3 5 4 8 9 10 10 22 18 19 19 19 17 18 21 16 10 8 8 9 9 6 2 4 8 12 15 18 24 30 34 34 32 37 38
19 7 7 8 3 8 1 4 4 7 7 4 4 5 9 11 13 15 12 16 17 22 26 22 23 23 22 15 8 5 4 5 6 5 2 2 5 6 10 14 17 22 32 37

GFSNGP_700_spd_063.txt.gz
Wind_Speed
24 26 25 25 26 24 22 17 15 24 26 15 25 20 15 17 12 12 24 28 24 17 19 18 35 47 32 33 36 32 30 32 27 21 28 31 30 29 29 29 28 27 26 25
23 21 20 27 29 25 25 25 26 21 27 15 14 20 20 16 12 6 9 22 23 28 30 26 27 38 39 34 34 32 32 29 30 27 23 27 30 29 30 28 29 29 29 28
20 18 17 24 25 24 24 27 24 26 24 23 23 8 10 14 14 14 8 18 11 24 19 38 44 33 52 47 51 24 29 30 30 28 27 24 25 29 29 30 29 30 31 30
17 12 5 24 13 20 27 24 28 28 28 25 21 14 16 19 20 19 19 17 15 13 19 21 18 42 36 58 47 35 30 27 29 30 29 28 27 25 26 29 30 29 30 31
20 12 17 25 19 16 10 14 11 15 23 27 27 14 21 25 27 25 26 24 18 12 12 11 13 12 24 25 39 33 30 28 31 31 30 30 29 27 27 25 25 29 29 30
14 5 5 11 10 16 18 22 19 17 14 28 29 17 19 28 35 35 24 33 26 19 6 6 8 15 23 22 33 36 27 22 27 30 31 31 29 27 27 28 26 22 27 29
26 14 15 17 21 14 15 17 21 23 18 23 25 20 19 25 31 45 36 38 32 31 14 11 9 13 24 25 41 33 34 29 30 28 29 31 33 30 28 27 28 28 26 28
8 11 12 19 14 13 20 25 24 30 27 25 28 27 24 27 30 30 38 38 29 29 24 17 19 20 16 19 38 37 37 36 32 30 29 30 34 33 31 30 26 25 27 29
6 5 15 12 21 24 27 26 27 31 30 32 34 35 36 35 35 31 29 36 32 26 31 24 16 19 28 29 29 38 41 42 37 36 35 33 33 35 34 36 33 27 24 21
18 21 23 25 28 28 34 34 34 36 38 38 39 41 45 43 43 41 34 31 29 33 36 31 24 21 24 27 30 34 37 41 41 38 37 34 32 35 37 37 40 36 33 27
16 18 25 27 28 30 33 36 39 42 43 42 40 42 42 48 47 46 40 37 35 35 50 48 38 32 26 26 30 36 39 37 41 41 39 37 36 34 35 38 41 43 38 34
16 22 19 19 21 26 31 34 37 39 40 38 35 37 39 43 41 43 26 35 36 37 45 54 52 42 38 30 32 37 41 36 38 42 43 43 42 38 36 37 40 44 43 39
19 20 18 16 20 21 24 25 26 25 27 26 26 29 34 29 29 33 26 33 38 40 34 57 42 37 38 38 35 38 40 38 39 40 44 46 46 44 42 40 38 44 44 43
18 21 20 22 21 20 24 18 16 19 22 22 19 23 25 22 24 29 32 32 34 34 33 40 40 39 36 38 42 39 36 36 38 41 41 42 46 47 46 44 40 38 44 43
20 22 24 24 24 26 23 21 16 17 15 17 24 13 21 20 25 25 27 33 36 34 33 33 34 36 34 38 44 40 34 38 41 44 47 45 43 44 46 47 44 40 44 42
16 18 23 23 21 21 22 21 21 15 9 12 15 18 26 23 22 21 19 26 32 30 31 35 27 32 29 30 34 31 29 32 44 50 48 48 50 45 43 44 44 44 43 41
11 12 14 18 19 21 24 20 19 20 14 5 10 13 23 26 31 26 23 22 23 31 30 29 36 22 32 36 38 40 35 22 25 42 42 49 46 45 44 42 41 36 40 44
14 18 17 18 17 24 22 25 18 15 13 13 10 6 7 15 18 19 19 27 24 25 27 36 25 23 30 33 28 13 29 37 38 39 30 54 45 46 45 47 47 47 44 45
6 18 16 14 17 20 21 22 24 17 14 14 15 13 10 8 9 12 17 23 28 25 21 25 23 22 18 25 30 29 24 22 28 27 23 14 27 43 41 46 44 44 40 46
9 11 12 14 12 19 23 17 23 20 17 14 14 15 16 12 9 12 11 11 16 24 30 26 28 22 19 20 23 25 21 23 13 14 22 24 28 30 22 28 38 40 40 41
15 3 12 13 11 13 21 16 19 15 20 21 21 20 20 20 14 13 10 10 9 9 16 24 33 31 22 18 22 24 25 23 18 16 15 11 5 6 12 7 16 30 38 38
19 8 2 4 11 13 12 11 15 14 13 12 20 18 24 25 16 12 10 9 9 9 7 7 12 27 26 28 23 23 24 26 21 22 19 15 12 7 7 6 5 7 9 9
15 21 2 4 5 6 7 11 13 10 17 8 13 15 20 30 22 11 8 10 12 11 10 7 9 6 15 33 28 23 26 27 27 27 27 26 24 22 18 17 15 14 15 16
9 9 6 4 7 12 4 4 7 7 12 16 12 16 18 24 24 15 10 10 12 10 13 14 14 10 3 7 14 12 20 30 32 30 29 29 28 27 25 29 29 31 31 29
17 10 9 9 2 7 3 4 9 11 13 13 10 8 16 16 20 17 16 14 10 13 19 14 10 11 10 8 3 13 13 13 22 29 31 31 31 31 30 29 28 27 26 28
19 13 7 5 6 5 2 3 3 4 12 16 13 13 7 15 16 17 16 19 22 23 24 22 16 13 9 9 9 7 4 4 6 11 14 18 23 29 30 25 26 32 30 27
18 3 6 13 11 9 10 9 8 2 5 11 10 8 5 2 7 12 16 13 17 22 20 20 21 19 16 11 8 6 5 5 6 4 2 2 6 10 14 17 23 29 26 21

GFSNGP_700_spd_069.txt.gz
Wind_Speed
5 7 11 13 13 11 7 4 5 5 10 4 4 2 2 8 10 8 8 18 34 40 43 41 36 37 36 39 40 35 33 30 28 26 30 32 32 34 33 33 31 30 29 28
9 11 14 17 16 13 8 6 12 14 12 5 7 7 5 10 9 7 6 13 29 37 37 40 40 37 34 35 41 38 37 33 31 29 27 31 33 34 36 36 36 35 34 32
5 12 16 2 12 7 2 4 9 18 19 17 8 13 13 13 12 6 5 4 10 28 38 42 44 37 38 37 36 39 39 35 32 30 28 26 29 32 35 36 37 38 37 37
3 8 2 5 4 3 8 4 6 10 19 21 11 15 16 17 17 15 9 9 9 8 7 21 39 46 48 42 39 37 39 37 31 28 29 29 29 31 32 34 35 37 39 38
4 9 12 20 15 17 14 17 16 15 14 15 13 12 20 18 20 22 19 17 15 16 9 10 22 30 38 41 39 36 34 36 35 33 32 30 33 34 30 31 32 32 35 37
9 4 5 1 7 10 9 18 19 22 21 22 20 11 19 24 24 23 25 21 21 18 24 13 13 18 25 34 39 38 42 41 37 36 32 30 32 34 31 27 26 28 30 33
16 11 12 21 18 15 12 19 21 22 24 30 31 28 20 24 23 27 28 26 22 23 22 21 18 19 20 23 37 33 37 32 33 36 38 34 31 31 32 32 28 29 30 29
10 8 13 16 16 22 30 31 30 27 29 28 31 34 27 26 28 25 24 28 30 24 25 25 23 22 25 33 18 26 35 42 39 37 39 37 35 29 29 30 33 33 34 35
8 8 13 16 19 20 25 32 33 33 32 33 37 40 38 34 32 34 31 26 32 34 27 28 30 30 23 21 21 15 23 32 38 38 36 38 39 35 33 30 33 35 36 36
12 10 17 21 24 26 29 31 33 36 38 39 41 41 39 39 37 38 38 34 33 36 35 31 37 39 38 33 22 21 19 24 32 39 34 44 48 42 34 32 32 31 35 36
14 12 12 13 15 14 16 20 27 33 38 42 45 46 43 42 40 38 42 41 38 38 39 37 32 33 41 46 47 40 31 27 35 46 51 44 52 49 37 36 32 31 30 33
12 10 10 11 12 15 16 17 19 22 25 29 34 39 41 42 41 40 40 42 44 40 39 43 41 37 34 35 39 45 44 30 34 41 36 40 44 42 39 39 38 35 33 32
12 10 11 12 12 13 14 15 15 20 24 23 19 20 23 28 30 36 41 43 45 45 42 39 39 43 47 42 40 41 42 51 46 30 29 27 42 48 46 40 40 36 34 33
13 12 10 12 11 13 13 13 13 15 19 18 15 12 13 14 23 26 35 38 42 44 42 43 41 39 42 48 44 43 39 45 47 46 33 24 29 41 46 43 42 39 35 36
13 11 8 7 10 11 12 15 15 14 15 17 20 14 17 18 19 19 22 27 32 35 37 37 42 44 40 43 49 44 43 45 44 51 45 34 30 33 42 45 48 45 39 41
8 6 5 6 9 12 12 15 19 17 14 14 15 16 15 15 15 18 20 26 30 29 33 33 33 36 41 40 48 52 44 43 50 47 46 43 43 39 36 36 44 49 46 43
3 3 3 5 5 9 12 14 18 16 14 13 16 17 20 16 13 17 18 21 23 28 29 28 31 32 35 40 44 49 48 47 48 52 56 54 55 52 46 43 43 42 44 44
8 8 8 9 7 9 12 12 13 12 13 14 19 23 19 15 19 14 13 16 22 25 26 31 30 29 33 35 36 37 42 43 45 50 62 62 58 58 55 51 48 44 47 45
10 11 10 10 10 7 11 9 7 12 14 14 17 23 26 14 15 17 13 12 15 18 22 31 28 31 28 32 34 37 37 37 40 43 41 49 53 60 57 47 45 45 49 51
6 11 15 14 11 8 2 6 9 10 13 11 14 21 25 18 15 17 16 14 12 12 15 20 25 31 34 31 27 29 34 36 34 37 38 40 43 47 41 36 38 42 49 51
11 12 13 11 12 8 4 6 4 7 11 11 13 18 20 20 12 15 15 11 9 8 10 10 14 24 29 30 28 26 27 32 30 27 16 23 31 33 38 35 33 35 33 31
16 14 12 14 9 13 9 4 5 4 8 15 14 15 21 19 16 15 17 19 18 15 12 3 8 8 12 21 27 27 27 26 22 26 40 15 12 13 27 30 35 32 32 31
14 15 14 10 12 13 10 9 6 4 7 13 14 13 19 16 15 15 18 22 25 26 21 14 5 5 8 7 11 23 25 28 24 25 29 25 11 17 13 15 27 35 29 24
20 15 14 14 15 14 7 11 7 4 5 11 14 12 11 11 12 12 15 18 19 25 29 28 13 12 8 8 8 9 15 24 26 26 24 26 17 18 17 17 21 26 23 20
21 21 22 13 13 13 12 8 10 4 6 10 11 7 8 10 10 10 9 14 17 23 28 32 27 19 16 11 7 7 10 10 14 25 28 15 16 18 21 22 17 22 19 18
15 14 9 5 12 13 13 12 7 4 8 11 13 6 5 7 9 9 9 13 16 19 24 29 31 28 24 18 15 13 10 12 13 10 10 19 23 19 22 24 26 23 23 17
13 17 10 8 9 15 16 11 4 8 7 12 10 4 4 7 7 8 9 13 15 18 20 23 24 24 24 23 21 16 12 12 14 11 12 10 10 19 13 18 17 15 16 16

GFSNGP_700_spd_072.txt.gz
Wind_Speed
7 8 6 7 9 9 8 7 4 7 6 9 7 4 3 5 5 7 7 7 9 19 25 30 33 32 33 35 31 29 32 32 31 28 27 26 28 26 28 29 29 28 28 27
5 4 4 7 9 10 13 15 15 10 10 11 11 8 4 5 6 9 11 8 9 14 22 29 34 36 33 32 31 29 32 35 32 33 32 30 29 28 28 29 31 31 32 32
6 4 2 5 9 11 12 13 18 17 16 15 17 16 14 12 8 5 6 8 10 9 16 19 27 34 36 34 31 27 25 29 33 31 34 35 32 31 30 29 30 32 33 35
4 2 4 11 12 7 8 9 10 12 15 14 17 22 22 21 17 12 8 7 8 10 10 10 17 24 34 32 29 32 31 26 25 28 32 35 36 33 31 30 31 31 33 35
3 4 3 12 12 11 11 14 16 17 17 17 15 18 24 25 25 23 17 14 14 12 10 9 11 13 20 33 35 43 37 33 32 32 32 34 36 35 31 32 32 31 31 34
7 3 4 4 7 7 10 21 19 22 23 23 21 22 19 24 28 28 28 20 18 20 17 18 13 14 15 19 26 30 36 37 35 32 30 31 32 34 33 33 32 32 32 32
11 6 5 12 10 9 10 11 12 16 21 24 27 29 27 26 27 31 31 32 25 20 21 21 20 19 15 18 17 23 28 32 38 35 32 33 32 34 33 33 33 36 34 32
10 9 9 10 15 22 23 26 29 29 28 28 31 32 29 30 34 35 33 31 34 31 23 22 23 22 23 22 20 20 20 22 32 36 32 31 29 31 30 28 28 32 33 34
7 4 7 9 12 15 19 23 25 27 32 38 40 41 40 34 35 38 43 41 36 39 35 26 24 27 27 24 20 18 23 20 19 25 36 35 32 31 33 32 31 30 33 38
9 7 11 13 14 13 15 20 26 31 35 38 39 41 43 45 44 42 45 48 46 42 43 42 31 29 31 31 27 27 26 29 20 13 21 32 29 31 34 40 35 33 33 37
10 9 11 11 14 16 18 19 18 18 20 23 30 35 41 46 46 45 44 46 50 52 47 45 42 36 31 32 38 40 38 35 34 21 19 20 28 31 39 39 38 35 33 33
12 11 9 10 11 13 14 16 18 21 21 23 27 32 34 37 37 41 46 48 49 51 52 49 49 46 40 38 33 37 37 44 40 37 23 36 27 34 42 34 38 45 38 34
12 13 12 12 14 14 13 15 16 18 19 19 22 24 24 26 24 25 32 40 47 49 48 47 50 52 48 46 45 39 38 35 40 48 45 38 34 34 29 34 37 39 40 37
14 14 13 15 14 12 13 14 14 15 17 17 19 19 18 19 20 21 26 31 37 42 46 48 47 50 51 50 51 49 46 45 43 43 43 43 44 41 37 35 37 43 45 40
16 13 14 15 13 12 12 13 15 16 18 17 17 18 18 19 21 21 20 24 25 31 34 33 39 44 47 50 52 49 47 49 50 51 50 47 48 50 48 36 43 46 46 49
14 12 12 11 10 10 11 13 16 15 15 13 14 18 21 18 18 20 21 23 26 28 31 33 35 38 41 46 50 49 45 44 47 51 51 52 53 51 51 48 41 33 33 41
8 9 8 7 6 8 12 14 13 10 9 9 12 17 22 21 16 19 21 21 24 28 31 36 37 37 37 38 45 48 47 45 46 50 51 52 51 55 53 55 52 44 40 35
10 10 10 10 9 9 12 13 8 7 11 13 14 17 22 25 21 19 20 18 19 24 29 32 31 33 37 34 39 43 43 44 46 49 52 55 53 51 54 56 53 49 44 43
17 11 11 12 14 14 12 12 6 8 10 13 14 18 23 24 23 19 18 20 22 22 22 25 32 35 35 33 35 37 40 42 43 44 48 53 56 54 54 56 57 53 48 50
14 17 15 15 14 13 14 13 8 9 8 9 14 16 19 23 20 18 18 20 22 24 26 27 26 29 34 36 34 32 32 37 40 40 40 40 51 53 55 54 60 56 53 53
17 18 16 14 14 15 16 14 11 11 9 11 16 16 16 23 16 15 17 19 23 26 28 26 25 26 25 29 30 29 32 32 30 32 34 33 34 43 48 47 47 52 47 47
19 20 19 14 15 17 18 17 13 10 10 12 16 14 15 16 14 14 18 23 24 29 33 31 25 20 18 21 23 25 28 30 26 23 23 26 26 22 24 29 31 38 39 35
34 25 23 18 17 17 18 18 15 12 11 12 14 11 8 12 14 15 17 20 23 28 34 31 26 20 16 9 16 20 22 23 23 25 20 19 25 27 22 19 23 22 24 27
19 26 27 22 24 21 19 17 18 18 7 10 12 12 9 12 13 15 17 20 21 26 28 31 29 24 18 12 5 7 20 24 23 22 19 19 15 19 28 11 11 20 28 35
18 10 13 15 22 24 26 24 12 9 6 8 10 13 11 12 12 13 15 18 19 23 27 30 31 30 26 20 16 9 5 13 20 14 16 19 20 17 22 22 12 16 19 19
11 15 12 10 5 2 6 9 8 6 6 7 11 10 11 14 11 13 12 15 18 20 24 25 28 28 29 29 23 19 13 9 9 15 17 18 15 15 13 20 13 11 17 18
15 15 14 14 11 12 12 16 14 6 4 5 9 5 10 12 12 9 9 10 14 18 22 21 23 25 26 27 29 27 24 18 12 7 7 10 13 13 15 17 20 22 18 12

GFSNGP_700_spd_075.txt.gz
Wind_Speed
6 6 8 8 9 7 5 7 4 12 13 18 12 9 6 6 3 3 5 5 5 7 16 22 27 26 26 27 29 31 31 30 32 30 31 26 27 27 26 26 27 26 26 26
8 8 9 12 16 16 12 10 9 15 14 14 12 9 7 3 4 5 6 7 8 8 11 17 23 25 28 29 30 30 26 28 31 33 35 34 33 32 32 31 30 29 30 30
5 7 5 8 14 14 15 14 12 10 14 14 14 12 10 8 6 5 5 6 6 7 9 12 16 21 26 29 31 30 29 30 29 34 34 33 33 34 34 34 33 33 32 32
7 8 4 7 12 14 14 11 11 11 12 15 17 18 17 15 14 12 11 8 7 7 8 9 11 15 20 25 28 30 32 32 26 23 29 33 35 36 35 35 36 35 34 34
6 11 4 11 17 15 14 11 14 13 12 12 14 16 20 23 23 21 18 17 15 13 10 11 13 13 14 17 18 28 34 32 29 24 24 24 30 35 36 37 37 35 34 35
9 4 6 6 16 14 11 12 16 16 17 16 16 16 20 21 25 26 27 26 22 21 19 18 15 15 15 17 20 21 29 35 35 29 27 28 25 32 35 38 38 37 35 33
9 5 5 10 13 12 7 6 5 6 10 14 17 21 21 24 26 28 29 29 29 27 25 24 22 22 20 17 19 21 24 31 33 35 27 30 31 29 34 38 39 39 37 35
12 7 9 14 16 14 14 14 15 17 19 22 25 27 24 24 26 30 35 34 34 33 29 30 29 26 24 25 24 20 23 22 23 31 39 40 35 35 35 37 38 41 39 39
9 9 8 10 13 14 16 18 21 23 25 28 29 28 28 31 36 36 35 37 41 43 41 33 33 33 31 28 27 23 25 22 24 21 26 28 35 32 35 35 38 35 34 34
12 14 16 16 15 16 17 17 16 16 16 19 21 24 27 30 31 34 38 43 45 46 46 47 43 40 38 36 34 30 25 26 23 22 21 20 26 34 33 30 38 39 36 35
13 13 13 13 15 17 16 18 18 18 20 21 21 20 23 26 29 31 34 40 47 50 53 51 50 50 47 43 41 39 36 31 28 28 28 23 22 21 21 26 36 36 38 39
12 14 15 15 12 11 11 13 14 15 17 20 20 21 24 27 31 32 30 32 39 47 52 54 52 53 53 52 49 47 44 42 39 37 35 34 30 28 25 19 19 28 38 37
11 14 16 16 14 13 13 12 13 15 16 17 21 20 23 25 28 30 32 29 30 35 44 54 56 54 54 55 56 52 49 48 44 42 38 40 43 39 33 31 28 22 31 33
15 14 15 16 15 14 13 13 14 15 16 17 18 19 20 23 25 26 26 29 28 30 35 41 49 52 53 55 55 58 56 54 51 48 45 39 37 43 43 43 31 39 33 31
19 16 15 18 17 14 13 14 13 14 15 17 17 17 18 19 23 26 25 25 27 27 29 32 35 39 43 48 55 56 58 59 57 55 52 50 45 43 39 46 40 35 36 33
22 18 17 18 15 14 12 12 11 12 11 11 11 13 14 17 19 21 24 25 28 27 26 29 34 33 34 43 49 54 57 56 58 58 57 57 53 49 47 44 53 46 39 35
26 12 11 12 12 11 11 11 12 12 9 10 12 12 15 19 22 22 23 22 24 26 24 25 28 32 32 38 42 45 51 52 53 56 57 56 57 56 56 53 49 56 48 44
16 17 14 11 10 12 13 14 13 12 11 11 11 11 15 19 20 22 21 20 20 23 25 25 26 27 28 33 37 40 41 47 51 54 54 55 56 56 56 53 55 56 51 50
12 11 11 15 12 12 13 15 15 12 11 11 10 12 16 16 21 22 19 19 19 21 24 28 28 29 27 25 30 36 38 39 46 48 49 52 55 56 57 56 54 54 55 52
14 16 18 18 19 17 16 16 16 14 15 11 12 15 17 17 18 18 17 21 21 23 26 31 31 33 29 26 25 30 35 36 37 37 42 46 49 53 54 54 55 56 55 55
15 16 18 21 14 18 20 18 17 16 15 12 13 15 17 15 14 14 16 20 23 27 28 30 33 35 30 25 24 25 28 34 37 34 30 33 42 44 48 49 50 54 53 53
21 20 22 23 23 23 24 25 19 18 15 12 12 14 14 10 11 13 15 20 23 26 26 28 34 34 32 27 24 21 22 25 31 36 31 28 28 34 40 43 40 42 44 47
25 26 25 30 34 26 23 21 18 21 15 13 11 11 11 12 12 13 14 17 21 23 25 28 30 33 32 26 22 18 15 20 23 26 27 27 23 26 25 30 32 29 26 32
22 23 20 20 18 15 21 22 23 24 20 16 11 10 12 10 12 13 16 15 20 21 22 23 28 30 33 28 22 18 11 10 17 26 27 25 26 24 26 31 29 24 27 27
19 18 16 11 13 11 14 19 21 26 21 11 7 9 11 8 9 11 13 12 17 19 18 21 25 28 30 32 27 20 17 10 2 4 17 25 24 27 25 18 24 25 20 26
15 16 14 11 14 13 4 3 8 24 16 7 6 8 6 9 12 13 9 11 14 15 18 19 22 25 29 28 31 31 23 13 10 3 8 12 16 14 12 15 17 23 13 18
14 13 12 7 4 5 5 6 5 15 10 5 2 4 8 12 12 9 11 9 11 14 17 21 23 23 21 26 25 28 31 27 19 13 11 13 14 17 19 18 15 14 13 13

GFSNGP_700_spd_078.txt.gz
Wind_Speed
8 8 8 8 5 3 6 8 8 16 17 15 12 12 10 8 6 6 5 4 3 6 14 19 24 31 34 33 30 29 29 31 31 29 30 28 29 29 25 25 24 24 25 25
1 5 4 5 7 6 4 5 10 13 15 13 16 15 12 9 7 5 4 4 5 4 4 7 15 19 26 29 32 31 28 29 30 32 32 33 31 30 32 31 29 28 29 29
7 4 4 11 14 12 11 10 10 11 11 16 15 14 12 11 10 9 8 8 8 8 8 10 8 10 16 22 26 30 30 32 34 35 36 36 35 33 33 34 33 34 33 32
5 7 7 5 12 13 12 11 12 13 18 16 17 15 15 14 13 12 11 10 10 10 10 11 12 11 11 12 17 22 28 28 32 34 30 32 34 34 33 31 35 35 34 34
6 14 1 6 9 9 15 11 12 13 19 19 18 16 18 19 19 18 17 17 16 14 13 13 14 14 14 15 14 14 27 30 30 32 32 34 32 38 37 38 36 34 33 34
8 8 6 6 14 18 17 12 16 15 17 17 15 7 18 20 20 21 22 22 22 21 21 20 19 17 18 18 18 16 17 22 33 35 37 39 36 32 32 38 40 40 39 36
11 9 7 9 12 17 12 8 14 19 17 16 14 20 21 23 23 25 25 26 26 26 27 27 26 24 23 22 23 23 21 21 22 26 41 45 33 32 30 31 36 41 42 39
11 10 11 12 13 13 15 11 12 11 12 15 17 19 21 23 23 25 29 31 33 32 32 32 32 32 31 28 28 27 24 25 24 23 22 30 36 39 37 33 33 36 41 41
9 6 13 9 18 22 18 16 16 16 17 18 19 21 23 24 24 24 27 31 33 34 35 35 38 39 36 36 34 32 30 31 28 27 27 25 26 35 37 36 33 38 43 44
10 10 14 12 11 14 15 17 17 16 13 11 11 12 13 16 18 21 22 23 28 33 39 40 40 41 44 42 40 41 37 33 30 33 30 29 28 28 27 30 39 40 49 43
16 15 12 16 16 16 14 13 13 15 15 15 14 15 14 17 18 21 23 23 25 29 34 39 43 47 47 47 47 46 45 43 40 34 37 33 30 28 26 26 30 34 33 42
10 9 13 14 13 13 13 13 13 14 14 13 13 15 15 17 18 19 20 22 24 26 30 33 38 44 48 52 52 52 50 50 48 46 41 41 40 37 32 29 29 28 37 49
11 14 15 17 17 14 14 16 16 14 13 14 14 15 15 17 18 20 21 23 25 25 26 28 32 36 40 46 52 55 57 55 55 54 51 49 46 43 41 38 34 31 28 30
23 20 18 17 18 19 19 17 15 13 13 13 13 12 13 15 17 20 21 23 25 27 28 28 29 32 35 38 43 48 55 56 55 57 58 58 56 53 50 47 43 37 36 34
19 22 23 19 21 19 18 15 13 11 11 12 12 10 10 11 15 20 21 23 26 27 28 29 30 30 33 36 36 39 44 54 59 58 58 62 60 59 57 52 49 48 47 43
21 21 25 26 23 19 16 14 11 9 10 10 9 9 10 12 16 20 23 25 26 28 29 28 29 29 28 32 38 39 38 39 50 59 59 59 63 63 61 58 54 50 42 48
18 22 21 28 23 16 14 13 11 9 9 9 8 9 11 14 16 19 21 23 25 27 28 27 28 28 26 29 34 37 39 40 39 48 57 57 60 63 64 64 62 59 54 48
8 11 13 20 20 15 15 14 13 12 13 11 10 11 11 13 16 19 20 22 23 25 26 27 27 29 29 29 33 35 36 37 39 38 46 52 54 59 62 64 66 65 60 57
5 7 8 9 13 16 17 17 17 15 15 14 12 11 11 14 17 19 19 20 21 21 24 26 26 26 28 29 33 34 34 36 38 39 41 47 49 53 58 60 61 66 69 66
7 8 11 17 19 21 23 20 18 18 18 17 14 13 13 15 17 16 16 17 17 21 26 27 30 28 33 32 32 31 31 32 35 38 40 42 44 48 52 57 58 60 63 66
10 13 14 15 19 22 22 18 18 21 22 20 17 15 15 14 14 13 13 13 17 20 22 24 26 30 35 36 35 31 27 28 28 32 37 41 41 40 43 49 53 55 57 61
19 20 21 22 26 27 25 23 26 24 27 26 19 16 15 13 11 12 13 13 17 20 23 21 24 30 34 36 38 32 29 27 25 25 29 34 39 40 38 37 45 49 51 54
20 25 26 28 27 30 28 34 33 31 28 25 21 16 14 12 9 8 8 16 16 18 21 19 24 27 32 33 35 34 30 28 25 22 23 27 31 37 36 36 38 43 45 46
22 25 27 31 27 22 23 22 24 32 24 27 25 20 13 11 9 10 12 16 17 17 18 20 24 26 26 28 35 35 31 28 25 23 21 23 29 33 38 41 42 35 38 36
12 15 15 14 17 19 11 13 12 18 21 20 25 19 10 9 9 12 11 12 16 16 16 21 23 24 22 22 30 35 36 28 23 20 18 18 21 23 31 43 36 39 38 33
12 12 12 11 12 9 9 8 8 14 23 26 18 10 7 7 8 11 9 11 11 13 12 17 21 22 23 19 22 29 33 31 23 16 13 12 8 6 9 9 16 19 33 34
13 11 10 9 5 4 5 9 3 7 17 13 8 6 6 6 7 5 9 7 8 11 13 14 14 21 22 17 18 20 25 22 26 19 11 8 5 2 3 7 9 11 13 18

GFSNGP_700_spd_081.txt.gz
Wind_Speed
3 6 13 21 18 16 19 19 10 17 21 23 19 15 14 13 13 14 13 14 18 19 18 15 24 32 34 36 36 38 36 24 22 30 28 29 27 26 26 25 22 22 22 22
8 5 8 10 10 9 13 11 8 18 21 18 18 16 14 14 12 12 11 11 9 8 11 17 19 25 34 34 33 32 31 31 33 32 33 33 30 30 29 28 27 27 26 26
13 8 6 12 13 12 11 11 14 17 19 18 16 15 13 14 14 13 11 10 10 9 7 6 5 5 12 21 30 37 36 34 33 34 35 35 34 31 35 32 31 27 29 30
10 4 11 5 10 11 14 13 10 11 18 18 17 16 15 15 14 13 12 11 10 9 9 9 8 8 7 7 12 19 24 33 37 35 37 37 36 34 36 34 34 36 32 31
18 14 6 5 7 12 17 16 13 15 18 18 16 14 14 19 19 17 16 15 14 12 11 11 11 11 11 12 13 13 13 23 30 35 39 39 40 39 35 37 38 38 34 31
11 17 15 10 12 12 15 20 19 16 15 13 13 11 17 22 22 22 21 21 20 20 20 19 18 16 16 17 19 18 17 17 17 29 33 34 35 36 35 33 34 39 39 39
13 11 6 7 9 7 12 10 16 16 16 13 12 20 24 24 21 22 22 23 23 23 24 25 25 24 24 23 24 24 23 23 22 21 22 32 37 38 39 39 37 37 40 42
13 13 13 9 8 9 12 11 15 17 16 13 23 28 26 21 25 25 26 25 24 24 26 27 28 28 29 31 31 30 30 29 28 28 27 24 23 31 38 37 36 34 36 37
7 5 8 9 6 18 11 12 13 11 15 14 16 20 22 21 25 26 27 28 26 26 26 26 28 28 29 33 33 36 37 36 35 33 31 31 29 26 28 36 45 49 44 43
4 9 6 7 14 16 20 12 16 17 18 18 19 19 20 18 22 24 27 28 27 28 28 27 27 28 30 33 34 33 36 39 41 40 39 37 37 33 31 31 36 44 44 43
11 11 10 10 13 14 14 16 17 18 17 16 15 16 18 16 17 18 18 19 20 23 24 24 24 25 26 30 33 37 39 39 39 43 45 45 42 40 39 36 34 34 37 43
8 5 11 8 13 14 13 15 16 15 15 15 14 17 14 18 16 18 20 20 21 22 23 26 26 25 23 23 26 29 34 40 43 45 46 50 49 46 43 42 39 36 36 35
11 17 9 11 14 15 15 14 15 14 15 15 17 18 17 21 18 19 19 19 20 21 20 20 22 24 25 24 27 30 31 33 37 44 50 50 52 55 53 48 47 46 41 39
14 19 16 12 12 16 17 19 16 16 17 17 19 18 18 19 18 17 17 18 18 20 20 20 23 24 26 28 29 32 34 37 38 38 43 50 53 54 56 59 57 53 50 46
21 22 19 15 13 15 16 16 17 16 17 17 18 17 16 16 18 14 14 15 17 18 20 22 24 26 28 30 31 32 35 37 40 42 42 44 49 56 59 61 62 63 59 54
17 24 25 28 29 18 19 16 15 13 12 12 12 13 11 11 11 13 11 14 16 18 20 22 25 28 30 32 33 34 34 36 37 40 42 44 46 50 56 60 61 64 68 65
20 22 26 28 23 28 21 19 16 14 13 13 12 12 11 11 12 14 17 18 19 21 22 24 26 28 30 33 35 38 39 39 38 38 40 42 46 48 49 56 63 66 65 68
7 5 9 15 20 27 25 24 22 17 16 16 13 14 15 14 12 16 16 18 20 22 24 25 26 29 29 30 32 35 38 41 43 41 41 42 44 48 50 50 55 61 64 63
8 6 6 5 3 11 22 22 21 19 18 20 19 17 15 15 13 18 16 17 18 19 20 24 26 30 30 28 28 32 36 39 41 43 44 43 45 47 51 51 50 54 59 62
8 9 10 11 12 13 14 18 20 24 25 24 19 19 18 18 18 16 16 16 14 17 17 23 27 31 33 33 31 34 36 38 39 39 41 41 44 46 48 51 52 53 55 60
17 14 14 16 19 21 23 24 27 26 30 25 25 23 22 22 18 17 16 12 13 22 20 24 25 26 29 33 36 36 37 39 36 35 35 36 39 43 46 46 49 52 51 52
14 21 22 22 23 22 22 23 24 25 22 26 27 30 24 26 20 18 13 11 16 19 17 21 25 26 28 32 34 31 33 39 41 36 33 32 33 35 39 43 46 49 52 47
13 15 18 21 25 28 29 31 28 30 29 31 33 31 30 30 17 16 13 13 15 21 20 18 22 24 28 31 31 31 37 40 44 41 35 31 29 28 32 36 38 41 45 45
14 14 14 15 19 21 24 27 27 28 31 32 34 36 39 25 17 13 14 22 21 19 20 18 23 25 29 26 27 31 35 39 42 40 35 32 30 28 25 26 30 34 38 40
11 12 14 16 15 15 16 18 18 16 18 23 18 22 21 17 14 12 15 16 20 17 14 22 24 25 26 27 27 30 31 34 40 36 35 31 29 27 26 23 21 26 33 40
9 12 14 14 12 11 10 6 8 9 10 13 13 15 21 14 10 11 13 14 11 18 12 15 17 22 24 21 27 26 26 29 32 34 29 28 23 22 21 20 18 17 20 24
8 13 18 11 9 11 7 2 1 2 1 14 18 14 13 2 7 10 12 9 10 13 7 14 14 17 16 23 27 29 23 27 23 29 25 23 19 16 15 13 12 11 9 6

GFSNGP_700_spd_084.txt.gz
Wind_Speed
19 11 27 28 26 14 17 16 23 16 21 22 12 14 17 16 14 13 16 16 17 17 15 23 21 33 35 34 32 34 30 20 23 24 24 22 22 22 21 23 21 20 19 18
4 5 9 27 27 20 19 17 7 11 27 28 23 15 14 16 16 15 15 16 16 15 15 14 12 7 28 25 25 29 30 25 23 22 22 25 27 26 24 23 23 22 23 21
4 1 3 2 8 8 9 6 9 23 24 25 21 18 14 14 15 13 12 10 9 7 7 6 6 10 11 13 22 30 24 23 28 29 26 24 29 30 28 27 26 26 24 24
9 6 7 3 8 7 13 11 5 21 25 22 21 18 14 14 16 16 14 13 12 10 8 7 6 8 7 11 17 24 31 31 33 33 33 32 31 31 32 30 29 29 29 26
12 14 6 4 6 10 13 13 9 17 18 23 23 20 16 15 15 16 16 16 15 13 12 10 8 8 8 9 9 13 17 25 32 37 40 38 35 34 35 34 34 32 30 28
14 12 14 16 12 16 10 14 16 16 20 19 16 11 14 16 19 19 19 16 15 15 16 14 14 13 13 13 13 13 13 13 14 14 18 28 35 39 38 38 37 35 34 34
17 13 7 8 7 9 12 7 21 18 18 14 16 18 23 25 21 17 18 20 21 22 23 21 20 20 21 22 22 20 20 20 19 19 19 18 18 23 31 35 38 36 35 33
12 12 6 11 9 7 13 18 17 17 20 19 23 25 22 24 26 23 23 23 23 24 25 25 26 25 25 27 27 28 29 28 28 26 25 25 23 21 20 23 33 38 38 37
4 5 8 6 10 14 15 20 24 28 30 30 27 26 25 21 22 26 28 28 25 24 24 26 24 24 25 26 27 29 31 33 33 33 33 32 30 30 27 26 26 26 36 41
1 5 3 5 7 11 13 12 19 14 20 20 18 20 20 21 23 25 30 26 24 24 25 25 24 24 24 26 27 27 28 28 29 33 36 37 37 36 35 33 33 32 31 31
9 9 9 14 10 12 16 18 16 19 17 18 19 20 24 22 23 25 24 22 20 19 21 21 21 22 23 23 23 24 26 28 29 31 32 34 38 41 42 41 40 40 38 37
7 7 8 7 9 10 14 16 18 21 21 20 18 23 19 22 17 19 21 19 21 21 22 23 23 23 23 24 22 20 18 18 20 21 23 28 34 38 40 44 47 48 45 44
9 9 11 9 11 15 15 15 14 15 18 18 18 20 18 21 18 18 20 20 21 22 23 23 23 22 20 21 22 23 23 23 22 21 22 24 27 30 33 39 45 48 51 52
16 20 14 13 13 14 17 17 18 15 17 17 17 18 17 22 19 19 19 20 20 19 20 21 22 22 22 22 21 22 25 27 27 27 29 30 31 32 34 36 38 44 51 55
23 23 22 17 19 18 17 17 21 20 18 17 18 19 18 20 24 15 18 18 18 18 17 17 19 20 19 20 20 23 26 29 30 31 32 34 36 37 38 40 40 43 46 50
19 18 19 25 19 24 21 20 19 18 16 15 13 21 19 21 22 17 16 13 14 15 16 16 17 18 19 22 23 24 26 30 33 36 39 41 42 42 42 43 45 44 47 49
13 13 16 23 24 24 33 27 26 18 16 15 19 22 22 19 16 15 15 15 13 15 17 19 18 19 20 22 24 26 28 30 32 34 37 41 44 45 48 48 47 48 48 50
8 9 9 13 16 21 27 32 29 24 23 19 19 24 24 18 16 16 16 14 16 16 18 18 16 19 21 22 24 26 28 31 34 37 39 40 43 46 48 50 52 53 52 52
15 12 7 5 5 9 20 26 34 29 29 24 25 24 23 19 18 17 18 16 16 17 19 20 19 19 23 23 23 26 27 31 34 38 40 43 44 46 49 51 53 55 57 56
21 18 13 11 10 10 7 8 17 23 21 21 29 29 25 26 26 23 20 21 17 17 17 19 18 19 22 24 24 26 27 30 33 36 40 42 44 46 48 50 52 54 55 56
19 14 17 22 16 17 18 18 23 22 21 22 21 28 29 26 26 26 23 24 20 19 14 17 17 17 20 22 27 32 34 35 35 35 39 43 43 42 41 43 45 48 50 52
16 16 20 16 19 22 26 31 33 30 28 32 34 27 28 29 33 30 25 26 20 21 18 20 22 18 19 24 29 32 34 35 34 37 39 43 45 41 38 37 38 41 45 46
15 15 17 20 21 22 24 26 34 34 26 23 26 28 29 32 30 33 31 26 21 22 16 14 23 22 22 24 28 31 29 33 37 40 42 46 46 42 37 33 33 34 35 38
11 12 14 15 15 17 18 18 21 23 28 29 31 29 31 38 41 31 25 23 18 19 18 20 20 20 22 24 28 25 28 30 36 40 42 46 47 41 34 32 31 30 30 29
9 6 14 15 14 14 15 16 17 18 20 21 23 26 31 36 33 29 23 21 20 17 16 19 19 17 21 23 21 24 27 36 36 36 39 41 41 37 33 31 30 30 28 25
10 10 13 14 12 16 12 12 9 12 12 15 12 11 15 24 31 22 16 16 3 16 15 17 16 19 21 21 20 28 34 31 35 32 31 35 34 34 33 29 28 27 25 25
9 10 13 11 12 12 14 8 5 9 12 1 7 6 5 10 13 7 8 2 6 13 10 14 12 15 20 21 19 29 26 28 34 35 30 27 29 27 29 26 26 24 23 23

GFSNGP_700_spd_087.txt.gz
Wind_Speed
20 12 10 15 24 24 21 8 5 18 15 21 13 18 18 15 13 17 18 18 17 19 18 20 19 22 17 28 27 32 27 27 24 23 21 22 22 20 19 18 16 15 15 13
9 2 8 14 24 26 17 3 6 10 17 15 14 17 17 16 18 17 18 18 17 16 14 15 19 17 19 26 25 26 30 27 30 15 25 23 25 24 21 21 19 19 18 16
11 8 11 8 13 16 12 13 12 18 27 23 22 19 21 18 15 15 14 15 15 15 16 15 17 17 18 14 28 26 26 27 16 18 18 17 21 22 23 21 23 21 20 20
8 6 4 5 5 6 7 12 12 16 30 29 26 18 15 16 17 18 18 17 16 14 13 13 11 10 14 8 10 18 6 11 17 20 18 23 24 21 22 24 25 25 26 26
4 9 4 11 7 8 7 13 11 21 26 25 20 19 16 17 16 15 16 16 15 13 13 12 12 13 10 9 10 9 16 23 24 26 27 27 29 27 28 27 29 29 29 29
6 2 3 4 4 9 15 16 15 22 28 26 26 19 15 15 17 18 15 13 13 13 13 13 12 11 11 11 12 14 15 13 19 22 20 16 19 27 33 33 33 31 29 29
5 2 0 5 10 3 7 9 18 17 19 23 25 21 20 20 16 14 14 15 16 16 17 18 17 17 17 16 15 15 14 15 16 18 16 15 15 14 13 16 20 27 31 33
7 6 7 10 12 10 9 17 19 22 21 19 18 18 21 25 25 22 20 19 19 19 19 18 19 21 21 22 23 23 23 24 24 23 23 23 22 21 19 18 18 17 19 26
2 3 6 8 11 16 20 19 19 21 23 24 25 23 26 27 25 26 27 22 21 23 23 21 21 22 23 25 25 26 28 29 29 28 30 30 30 30 28 26 25 24 23 21
2 1 5 9 11 15 16 18 22 27 28 30 30 31 31 28 27 29 30 27 25 25 24 22 21 22 23 22 21 22 23 25 26 27 27 28 30 32 34 33 33 31 30 30
4 6 8 8 9 14 18 22 21 23 29 28 32 32 33 32 21 22 22 19 21 21 22 19 20 20 20 20 20 21 22 23 25 26 28 29 30 30 30 30 32 35 36 37
6 8 8 5 10 13 14 16 23 22 23 25 26 29 32 29 22 21 22 19 18 18 18 19 19 18 20 20 20 21 22 21 20 20 21 22 23 22 24 26 28 31 34 36
19 16 17 12 8 8 14 14 14 20 21 19 21 25 24 24 18 19 20 20 20 19 18 17 18 16 16 17 17 18 19 21 20 20 20 20 21 22 22 22 23 25 27 29
24 23 18 18 19 21 22 26 19 18 21 19 21 20 22 21 19 20 18 20 20 19 19 18 18 17 16 16 17 18 19 19 20 21 21 22 24 25 27 28 27 26 28 32
26 29 27 24 23 24 22 23 24 21 20 22 22 21 22 24 23 20 18 19 19 19 18 19 19 17 15 15 16 16 18 20 22 23 25 26 28 30 31 32 33 35 35 35
15 20 22 23 26 26 26 26 26 26 20 21 23 23 21 24 23 19 19 18 19 17 16 17 16 17 19 19 20 21 23 24 25 26 27 29 31 33 34 36 37 38 40 42
12 14 13 16 19 24 31 27 28 28 24 22 18 19 22 23 23 21 20 19 19 16 17 16 14 15 17 18 19 19 20 22 24 26 28 31 33 36 37 39 42 43 44 44
15 10 11 12 12 16 25 33 32 35 32 31 24 25 28 28 24 23 20 20 17 18 16 14 14 14 15 15 17 18 19 21 23 25 26 28 30 33 37 41 45 48 50 52
17 12 14 10 11 11 10 20 27 31 33 38 28 32 30 26 25 24 23 22 19 17 15 14 15 14 15 12 15 16 16 18 20 23 27 31 34 37 41 45 47 50 52 55
12 17 15 17 13 15 17 13 11 21 20 28 41 34 25 26 31 28 27 24 21 19 18 15 15 15 16 12 14 18 18 19 22 24 28 33 36 39 42 46 49 52 54 56
22 23 25 25 20 20 17 15 16 17 15 18 21 26 34 32 31 32 30 29 24 20 20 19 18 13 14 17 17 19 23 24 27 30 32 34 35 37 42 47 47 48 49 51
19 22 21 20 19 21 17 18 19 22 27 30 35 35 37 33 37 39 30 31 25 22 25 21 19 15 16 17 19 22 25 26 28 32 35 38 40 40 43 47 47 44 42 42
17 17 14 14 16 20 25 24 23 24 30 27 31 31 41 33 40 38 34 35 32 30 27 23 23 19 16 18 20 23 25 28 29 31 34 37 42 40 43 48 46 42 38 36
13 9 10 11 14 17 18 17 18 20 21 22 21 26 24 27 25 31 37 33 38 35 34 21 19 16 18 18 19 22 23 21 26 31 30 35 37 40 41 45 43 39 34 32
7 11 13 14 15 14 16 15 13 16 16 16 19 21 24 24 27 28 27 33 32 31 26 20 14 16 16 14 17 23 23 22 20 26 31 38 39 38 36 42 42 37 33 32
12 13 13 13 11 12 14 11 10 13 12 11 10 11 12 14 16 17 22 27 24 18 22 7 8 14 16 18 21 24 26 29 33 35 39 34 26 30 33 36 37 36 35 33
16 17 13 10 9 9 11 11 13 13 17 14 5 8 6 5 5 7 12 18 13 8 3 5 5 10 13 20 22 24 23 28 34 33 28 23 25 28 31 31 33 32 33 33